Flag for Greece Weather past 2 weeks in Acharnes, Greece

Now
99 °F

Passing clouds.


Feels Like: 97 °F
Forecast: 74 / 99 °F
Wind: 9 mph from South

Location: Elefsis Airport

Current Time: Jul 29, 2015 at 5:34:31 PM

Latest Report: Jul 29, 2015 at 4:50 PM


Visibility: N/A

Pressure: 29.68 "Hg

Humidity: 24%

Dew point: 55 °F

Location of AcharnesLocation

Historic Weather in Acharnes — Graph

°F

Acharnes temperature yesterday

Maximum temperature yesterday: 99 °F (at 2:20 PM)
Minimum temperature yesterday: 77 °F (at 3:50 AM)
Average temperature yesterday: 87 °F

Past Weeks' High & Low Weather Summary

 TemperatureHumidityPressure
High100 °F (Jul 29, 1:20 PM)73% (Jul 25, 5:20 AM)30.01 "Hg (Jul 25, 5:20 AM)
Low70 °F (Jul 25, 4:20 AM)10% (Jul 21, 12:20 AM)29.68 "Hg (Jul 27, 2:50 PM)
Average85 °F36%29.83 "Hg
* Reported Jul 14 4:20 PM — Jul 29 4:20 PM, Acharnes, Weather by CustomWeather, © 2015

Note: Actual official high and low records may vary slightly from our data, if they occured in-between our weather recording intervals... More about our weather records

Advertising

Acharnes weather history for previous 24 hours

 ConditionsComfort  
Time TempWeatherWind HumidityBarometerVisibility
4:20 PM
Wed, Jul 29
99 °FPassing clouds.10 mph24%29.71 "HgN/A
3:50 PM99 °FPassing clouds.10 mph27%29.71 "HgN/A
3:20 PM99 °FPassing clouds.8 mph24%29.71 "HgN/A
2:50 PM99 °FPassing clouds.12 mph25%29.71 "HgN/A
1:50 PM99 °FPassing clouds.8 mph29%29.71 "HgN/A
1:20 PM100 °FPassing clouds.8 mph24%29.71 "HgN/A
12:50 PM99 °FPassing clouds.8 mph25%29.71 "HgN/A
12:20 PM99 °FPassing clouds.6 mph25%29.71 "HgN/A
11:50 AM97 °FPassing clouds.3 mph28%29.71 "HgN/A
11:20 AM95 °FPassing clouds.3 mph30%29.74 "HgN/A
10:20 AM91 °FSunny.3 mph34%29.74 "Hg10 mi
9:50 AM91 °FSunny.3 mph34%29.74 "Hg10 mi
9:20 AM90 °FSunny.No wind36%29.74 "Hg10 mi
8:50 AM88 °FSunny.No wind40%29.74 "Hg10 mi
8:20 AM86 °FSunny.No wind43%29.74 "Hg10 mi
7:50 AM82 °FSunny.No wind48%29.74 "Hg10 mi
7:20 AM79 °FClear.No wind54%29.74 "Hg10 mi
6:50 AM77 °FClear.No wind57%29.74 "Hg10 mi
5:50 AM79 °FClear.No wind54%29.71 "Hg10 mi
5:20 AM77 °FClear.No wind57%29.71 "Hg10 mi
4:50 AM77 °FClear.No wind57%29.71 "Hg10 mi
4:20 AM77 °FClear.No wind57%29.71 "Hg10 mi
3:50 AM77 °FClear.No wind54%29.71 "Hg10 mi
3:20 AM79 °FClear.No wind54%29.71 "Hg10 mi
2:50 AM81 °FClear.No wind48%29.74 "Hg10 mi
2:20 AM79 °FClear.No wind51%29.74 "Hg10 mi
1:50 AM81 °FClear.No wind51%29.74 "Hg10 mi
12:50 AM82 °FClear.No wind45%29.74 "Hg10 mi
12:20 AM82 °FClear.No wind45%29.74 "Hg10 mi
11:20 PM
Tue, Jul 28
84 °FClear.No wind45%29.71 "Hg10 mi
10:50 PM86 °FClear.No wind43%29.71 "Hg10 mi
10:20 PM86 °FClear.No wind46%29.71 "Hg10 mi
9:50 PM86 °FClear.No wind46%29.71 "Hg10 mi
8:50 PM88 °FSunny.No wind40%29.71 "Hg10 mi
8:20 PM88 °FSunny.5 mph40%29.71 "Hg10 mi
7:50 PM90 °FSunny.6 mph41%29.68 "Hg10 mi
7:20 PM90 °FSunny.6 mph41%29.68 "Hg10 mi
6:50 PM91 °FPassing clouds.10 mph36%29.68 "HgN/A
6:20 PM91 °FPassing clouds.9 mph36%29.68 "HgN/A
5:50 PM93 °FPassing clouds.12 mph34%29.68 "HgN/A
5:20 PM93 °FPassing clouds.12 mph36%29.68 "HgN/A
Weather by CustomWeather, © 2015

See weather overviewHow to use our weather pages